Weather History for Halifax, NS

Change the Weather History Date:

Saturday, February 8, 2014

  Actual Average Record
Temperature  
Mean Temperature 20 °F -  
Max Temperature 27 °F 31 °F 48 °F (2005)
Min Temperature 13 °F 15 °F -8 °F (2013)
Degree Days  
Heating Degree Days 45    
Moisture  
Dew Point 11 °F    
Average Humidity 71    
Maximum Humidity 93    
Minimum Humidity 41    
Precipitation  
Precipitation 0.00 in 0.16 in - ()
Sea Level Pressure  
Sea Level Pressure 30.08 in    
Wind  
Wind Speed 10 mph ()    
Max Wind Speed 20 mph    
Max Gust Speed 29 mph    
Visibility 15.0 miles    
Events      
Averages and records for this station are not official NWS values.
T = Trace of Precipitation, MM = Missing Value Source: Averaged Metar Reports

Daily Weather History Graph

Daily Weather History Graph

Search for Another Location

Airport:

Trip Planner

Search our weather history database for the weather conditions in past years. The results will help you decide how hot, cold, wet, or windy it might be!

Date:

Astronomy

Feb. 08, 2014 Rise Set
Actual Time 7:24 AM AST 5:32 PM AST
Civil Twilight 6:54 AM AST 6:02 PM AST
Nautical Twilight 6:19 AM AST 6:37 PM AST
Astronomical Twilight 5:45 AM AST 7:11 PM AST
Moon 12:19 PM AST (2/8) 2:36 AM AST (2/8)
Length of Visible Light 11h 08m
Length of Day
10h 07m
Waxing Gibbous, 68% of the Moon is Illuminated
Feb 8
Waxing Gibbous
Feb 14
Full
Feb 22
Last Quarter
Mar 1
New
Mar 8
First Quarter

Hourly Weather History & Observations

Time (AST) Temp. Windchill Dew Point Humidity Pressure Visibility Wind Dir Wind Speed Gust Speed Precip Events Conditions
12:00 AM 14.0 °F 2.9 °F 8.6 °F 79% 30.09 in 15.0 mi SW 8.1 mph - N/A   Clear
1:00 AM 14.0 °F 0.5 °F 8.6 °F 79% 30.09 in 15.0 mi SW 11.5 mph - N/A   Mostly Cloudy
2:00 AM 15 °F - 10 °F 71% 30.08 in 15 mi SW 10.4 mph - -   Mostly Cloudy
2:00 AM 14.0 °F 1.2 °F 10.4 °F 86% 30.08 in 15.0 mi SW 10.4 mph - N/A   Mostly Cloudy
3:00 AM 14.0 °F 1.2 °F 10.4 °F 86% 30.07 in 15.0 mi SW 10.4 mph - N/A   Overcast
4:00 AM 15.8 °F 2.7 °F 12.2 °F 86% 30.07 in 15.0 mi SSW 11.5 mph - N/A   Overcast
5:00 AM 15.8 °F 4.2 °F 12.2 °F 86% 30.08 in 15.0 mi SW 9.2 mph - N/A   Mostly Cloudy
6:00 AM 15.8 °F 3.4 °F 14.0 °F 93% 30.07 in 15.0 mi SSW 10.4 mph - N/A   Mostly Cloudy
7:00 AM 17.6 °F 6.4 °F 14.0 °F 86% 30.08 in 15.0 mi SW 9.2 mph - N/A   Mostly Cloudy
8:00 AM 15 °F - 13 °F 85% 30.09 in 15 mi SW 6.9 mph - -   Scattered Clouds
8:00 AM 14.0 °F 5.1 °F 12.2 °F 93% 30.09 in 15.0 mi SW 5.8 mph - N/A   Partly Cloudy
9:00 AM 15.8 °F 8.6 °F 12.2 °F 86% 30.10 in 15.0 mi SW 4.6 mph - N/A   Partly Cloudy
10:00 AM 21.2 °F 9.5 °F 14.0 °F 74% 30.10 in 15.0 mi West 11.5 mph - N/A   Partly Cloudy
11:00 AM 23.0 °F 11.7 °F 14.0 °F 68% 30.10 in 15.0 mi West 11.5 mph 17.3 mph N/A   Partly Cloudy
12:00 PM 24.8 °F 10.7 °F 14.0 °F 64% 30.07 in 15.0 mi West 19.6 mph 28.8 mph N/A   Mostly Cloudy
1:00 PM 24.8 °F 10.7 °F 12.2 °F 59% 30.04 in 15.0 mi West 19.6 mph - N/A   Partly Cloudy
2:00 PM 26 °F - 12 °F 41% 30.02 in 15 mi WSW 17.3 mph - -   Scattered Clouds
2:00 PM 26.6 °F 13.8 °F 12.2 °F 55% 30.02 in 15.0 mi West 17.3 mph 24.2 mph N/A   Partly Cloudy
3:00 PM 26.6 °F 14.3 °F 12.2 °F 55% 30.02 in 15.0 mi WSW 16.1 mph 23.0 mph N/A   Partly Cloudy
4:00 PM 26.6 °F 13.1 °F 10.4 °F 51% 30.02 in 15.0 mi West 19.6 mph 27.6 mph N/A   Partly Cloudy
5:00 PM 24.8 °F 11.1 °F 10.4 °F 54% 30.03 in 15.0 mi West 18.4 mph 25.3 mph N/A   Partly Cloudy
6:00 PM 23.0 °F 10.6 °F 10.4 °F 59% 30.08 in 15.0 mi NW 13.8 mph - N/A   Partly Cloudy
7:00 PM 19.4 °F 6.0 °F 8.6 °F 63% 30.10 in 15.0 mi WNW 13.8 mph 24.2 mph N/A   Partly Cloudy
8:00 PM 18 °F - 8 °F 54% 30.12 in 15 mi West 8.1 mph - -   Clear
8:00 PM 17.6 °F 7.3 °F 8.6 °F 68% 30.12 in 15.0 mi West 8.1 mph - N/A   Partly Cloudy
9:00 PM 17.6 °F 5.7 °F 8.6 °F 68% 30.10 in 15.0 mi WNW 10.4 mph - N/A   Partly Cloudy
10:00 PM 17.6 °F 8.2 °F 8.6 °F 68% 30.12 in 15.0 mi WSW 6.9 mph - N/A   Mostly Cloudy
11:00 PM 14.0 °F 3.9 °F 8.6 °F 79% 30.12 in 15.0 mi West 6.9 mph - N/A   Mostly Cloudy